Tracking 33068 objects as of 24-Jan-2026
HD Live streaming from Space Station
objects crossing your sky now

ONEWEB-0192

Track ONEWEB-0192 now!
10-day predictions
ONEWEB-0192 is classified as:


NORAD ID: 48222
Int'l Code: 2021-031N
Perigee: 1,211.7 km
Apogee: 1,214.2 km
Inclination: 87.9 °
Period: 109.5 minutes
Semi major axis: 7583 km
RCS: Unknown
Launch date: April 25, 2021
Source: United Kingdom (UK)
Launch site: VOSTOCHNY COSMODROME (VOSTO)
Your satellite tracking list
Your tracking list is empty




NASA's NSSDC Master Catalog

Two Line Element Set (TLE):
1 48222U 21031N   26024.30526975 -.00000109  00000-0 -32959-3 0  9999
2 48222  87.9021 318.3955 0001631  79.2207 280.9106 13.14505170229274
Source of the keplerian elements: AFSPC